Regional Weather Roundup
Issued by NWS

Home | Current Version | Previous Version | Graphics & Text | Print | Product List | Glossary Off
Versions: 1 2 3 4 5 6 7 8 9 10 11 12 13 14 15 16 17 18 19 20 21 22 23 24 25 26 27 28 29 30 31 32 33 34 35 36 37 38 39 40 41 42 43 44 45 46 47 48 49 50

000
ASUS43 KMPX 162001
RWRMN
WEATHER ROUNDUP FOR MINNESOTA
NATIONAL WEATHER SERVICE TWIN CITIES/CHANHASSEN MN
300 PM CDT WED AUG 16 2017


NOTE: "FAIR" INDICATES FEW OR NO CLOUDS BELOW 12,000 FEET WITH NO
SIGNIFICANT WEATHER AND/OR OBSTRUCTIONS TO VISIBILITY. N/A MEANS
CURRENT SKY AND/OR WEATHER CONDITIONS ARE NOT AVAILABLE.

MNZ060>063-068>070-162100-
   Twin Cities Metro

CITY           SKY/WX    TMP DP  RH WIND       PRES   REMARKS
TWIN CITIES    CLOUDY    76  67  73 E12       29.82F
ST PAUL        CLOUDY    76  69  79 SE9       29.82F
CRYSTAL        CLOUDY    75  65  70 VRB6      29.81F
BLAINE         CLOUDY    75  70  83 E9        29.83F
LAKEVILLE      CLOUDY    77  70  78 E10       29.81F
EDEN PRAIRIE   CLOUDY    76  68  76 E10       29.80F
SOUTH ST PAUL  CLOUDY    76  67  74 SE6       29.82F
LAKE ELMO      PTSUNNY   77  70  78 E7        29.84F
$$
MNZ001>005-007-008-013>017-022>024-027-028-162100-
   Northwest Minnesota

CITY           SKY/WX    TMP DP  RH WIND       PRES   REMARKS
BEMIDJI        CLOUDY    65  62  91 SE9       29.87F
HALLOCK        CLOUDY    66  63  88 E6        29.87S
ROSEAU         CLOUDY    64  61  88 E7        29.89S
WARROAD        RAIN      64  61  88 SE8       29.90F
THIEF RVR FALL LGT RAIN  64  64 100 NE5       29.87F FOG
CROOKSTON      DRIZZLE   64  64 100 CALM      29.86S
FOSSTON        CLOUDY    64  63  94 S3        29.87S
DETROIT LAKES  LGT RAIN  64  63  94 SE6       29.86F
MOORHEAD       LGT RAIN  66  64  94 CALM      29.84S
PARK RAPIDS    LGT RAIN  67  64  90 E7        29.87F FOG
MAHNOMEN       DRIZZLE   65  64  96 SE3       29.85F
$$
MNZ006-009>011-018-025>026-162100-
   North Central Minnesota

CITY           SKY/WX    TMP DP  RH WIND       PRES   REMARKS
BAUDETTE       LGT RAIN  63  62  97 E5        29.89F FOG
FLAG ISLAND    CLOUDY    64  61  88 CALM      29.89S
INTL FALLS     LGT RAIN  68  61  78 E3        29.91F
WASKISH        DRIZZLE   64  63  94 E3        29.88F
BIG FORK       LGT RAIN  66  61  82 SE8       29.90S
LONGVILLE      LGT RAIN  64  63  94 E3        29.88F
GRAND RAPIDS   LGT RAIN  64  62  93 SE6       29.92F
CRANE LAKE     MOSUNNY   72  55  56 SE3       29.93F
ORR            CLOUDY    68  55  64 SE8       29.90S
COOK             N/A     68  57  68 SE6       29.93S
WALKER         RAIN      64  62  96 SE5       29.88F
$$
MNZ012-019>021-037-162100-
   Northeast Minnesota

CITY           SKY/WX    TMP DP  RH WIND       PRES   REMARKS
DULUTH         LGT RAIN  61  60  97 E10       29.93F
ELY            CLOUDY    73  52  46 S12       29.94F
HIBBING        LGT RAIN  64  62  93 SE9       29.92F
EVELETH        DRIZZLE   65  56  72 SE7       29.94F
DULUTH HARBOR  DRIZZLE   63  61  94 NE22      29.93F
TWO HARBORS    LGT RAIN  64  61  88 E12       29.93F
SILVER BAY     LGT RAIN  63  57  82 NE12G17   29.96S
GRAND MARAIS     N/A     63  58  83 E12       29.98F
$$
MNZ029>031-032-039>041-046>048-054>057-064-162100-
   West Central Minnesota

CITY           SKY/WX    TMP DP  RH WIND       PRES   REMARKS
FERGUS FALLS   DRIZZLE   68  68 100 CALM      29.83S
WHEATON        LGT RAIN  70  64  83 NE5       29.83F
MORRIS         RAIN      70  66  88 SE8       29.82F
ALEXANDRIA     LGT RAIN  67  66  97 E6        29.86F FOG
ELBOW LAKE     RAIN      67  67  99 SE6       29.84S
WADENA         RAIN      66  66 100 SE6       29.85F
GLENWOOD       DRIZZLE   66  66 100 E3        29.85F
APPLETON       RAIN      70  66  88 E6        29.81F
BENSON         LGT RAIN  70  66  88 SE3       29.84F
ORTONVILLE     LGT RAIN  68  66  94 MISG      29.81F
MADISON        HVY RAIN  72  72 100 E7        29.81F
WILLMAR        RAIN      70  68  94 NE7       29.82F
$$
MNZ033>034-036-042>043-049>051-058-059-162100-
   Central Minnesota

CITY           SKY/WX    TMP DP  RH WIND       PRES   REMARKS
ST CLOUD       CLOUDY    70  67  90 E8        29.84F
SAUK CENTRE    RAIN      67  66  96 E5        29.84F
PAYNESVILLE    RAIN      68  67  95 E3        29.84F
AITKIN         CLOUDY    64  63  94 E3        29.88F
PINE RIVER     RAIN      64  63  94 SE5       29.91F
BRAINERD       CLOUDY    66  64  93 SE6       29.87F
STAPLES        LGT RAIN  66  64  94 E5        29.86F
LONG PRAIRIE   RAIN      64  64 100 CALM      29.86F
LITTLE FALLS   CLOUDY    66  63  88 E3        29.86F FOG
LITCHFIELD     CLOUDY    70  70 100 E5        29.83F FOG
BUFFALO        CLOUDY    71  64  79 E6        29.84F
MAPLE LAKE     CLOUDY    72  68  87 E5        29.84F
HUTCHINSON     CLOUDY    71  68  90 E7        29.82F
$$
MNZ037-044-045-052-053-162100-
   East Central Minnesota

CITY           SKY/WX    TMP DP  RH WIND       PRES   REMARKS
PRINCETON      CLOUDY    72  66  83 CALM      29.85F
MORA           CLOUDY    70  64  83 CALM      29.87F
RUSH CITY      CLOUDY    71  65  81 E3        29.86F HAZE
MOOSE LAKE     CLOUDY    64  61  88 E5        29.88F
HINCKLEY       CLOUDY    72  64  78 E10       29.87F
CLOQUET        LGT RAIN  61  57  88 E8        29.92F
MCGREGOR       CLOUDY    64  63  94 E7        29.90F
$$
MNZ071>073-080-081-089-090-097-098-162100-
   Southwest Minnesota

CITY           SKY/WX    TMP DP  RH WIND       PRES   REMARKS
MONTEVIDEO     LGT RAIN  70  68  94 E6        29.80F
GRANITE FALLS  RAIN      70  69  96 N9        29.80F
CANBY          LGT RAIN  69  67  94 CALM      29.80F
MARSHALL       HVY RAIN  67  67 100 NE10      29.77F FOG
REDWOOD FALLS  HVY RAIN  68  66  93 NE6       29.78F VSB 3/4
OLIVIA         LGT RAIN  70  68  94 NE8       29.79F
PIPESTONE      RAIN      68  66  94 NE10      29.75F
WINDOM         RAIN      68  66  94 NE7       29.76F
WORTHINGTON    RAIN      67  66  97 VRB6      29.76F FOG
JACKSON        HVY RAIN  68  68 100 CALM      29.76S VSB 1/2
TRACY          LGT RAIN  68  68 100 E8        29.78F
SLAYTON        RAIN      66  62  85 NE8       29.79F
$$
MNZ065>067-074>077-082>085-091>093-162100-
   South Central Minnesota

CITY           SKY/WX    TMP DP  RH WIND       PRES   REMARKS
MANKATO        CLOUDY    75  70  84 E12       29.78F
NEW ULM        CLOUDY    72  68  88 E9        29.77F
ST JAMES       CLOUDY    73  70  88 E9G18     29.77F
FAIRMONT       LGT RAIN  76  71  85 E10G18    29.75F
GLENCOE        CLOUDY    74  71  89 E13       29.79F
FARIBAULT      CLOUDY    77  70  78 E9        29.81F
OWATONNA       CLOUDY    79  72  78 SE15      29.80F
WASECA         PTSUNNY   77  70  78 SE9       29.80F
ALBERT LEA     CLOUDY    81  73  78 SE9       29.79F
$$
MNZ078>079-086>088-094>096-162100-
   Southeast Minnesota

CITY           SKY/WX    TMP DP  RH WIND       PRES   REMARKS
ROCHESTER      CLOUDY    77  70  79 SE10      29.84F
RED WING       CLOUDY    81  64  57 SE13      29.81F
STANTON        CLOUDY    78  69  74 E6        29.81F
DODGE CENTER   PTSUNNY   79  68  69 SE10G18   29.83F
WINONA         MOSUNNY   81  66  61 E13       29.84F
AUSTIN         CLOUDY    77  70  78 E10G16    29.80F
PRESTON        CLOUDY    79  67  67 SE13G18   29.85F
$$
ABBREVIATIONS USED IN REMARKS
   TC - TEMPERATURES IN CELSIUS
  WCI - WIND CHILL INDEX
   HX - HEAT INDEX
  VSB - VISIBILITY
$$




USA.gov is the U.S. government's official web portal to all federal, state and local government web resources and services.